Flag for Taiwan Weather past 2 weeks in Kaohsiung, Taiwan

Now
77 °F

Passing clouds.


Feels Like: 79 °F
Forecast: 68 / 83 °F
Wind: 8 mph from North

Location: Kaohsiung International Airport

Current Time: Mar 27, 2015 at 9:03:19 PM

Latest Report: Mar 27, 2015 at 8:30 PM


Visibility: N/A

Pressure: 30.09 "Hg

Humidity: 61%

Dew point: 63 °F

Location of KaohsiungLocation

Historic Weather in Kaohsiung — Graph

°F

Kaohsiung temperature yesterday

Maximum temperature yesterday: 79 °F (at 11:30 AM)
Minimum temperature yesterday: 66 °F (at 1:00 AM)
Average temperature yesterday: 73 °F

Past Weeks' High & Low Weather Summary

 TemperatureHumidityPressure
High88 °F (Mar 19, 10:30 AM)100% (Mar 16, 3:00 AM)30.24 "Hg (Mar 16, 3:00 AM)
Low63 °F (Mar 13, 1:00 AM)49% (Mar 27, 2:00 PM)29.86 "Hg (Mar 17, 7:00 PM)
Average76 °F76%30.04 "Hg
* Reported Mar 12 8:00 PM — Mar 27 8:00 PM, Kaohsiung, Weather by CustomWeather, © 2015

Note: Actual official high and low records may vary slightly from our data, if they occured in-between our weather recording intervals... More about our weather records

Advertising

Kaohsiung weather history for previous 24 hours

 ConditionsComfort  
Time TempWeatherWind HumidityBarometerVisibility
8:00 PM
Fri, Mar 27
77 °FPassing clouds.8 mph61%30.07 "HgN/A
7:30 PM77 °FPassing clouds.7 mph61%30.07 "HgN/A
7:00 PM77 °FPassing clouds.8 mph61%30.07 "HgN/A
6:30 PM79 °FPartly cloudy.9 mph58%30.07 "HgN/A
6:00 PM79 °FBroken clouds.9 mph61%30.07 "Hg5 mi
5:30 PM79 °FPartly sunny.12 mph61%30.04 "Hg5 mi
5:00 PM82 °FBroken clouds.12 mph58%30.04 "Hg5 mi
4:30 PM84 °FScattered clouds.13 mph58%30.04 "HgN/A
4:00 PM84 °FScattered clouds.12 mph55%30.04 "HgN/A
3:30 PM84 °FBroken clouds.9 mph55%30.04 "HgN/A
3:00 PM84 °FPartly sunny.12 mph55%30.07 "Hg6 mi
2:30 PM86 °FPartly sunny.10 mph49%30.07 "Hg4 mi
2:00 PM86 °FBroken clouds.10 mph49%30.07 "Hg4 mi
1:30 PM86 °FBroken clouds.13 mph52%30.09 "Hg4 mi
1:00 PM84 °FPartly sunny.12 mph55%30.12 "Hg3 mi
12:30 PM82 °FPartly sunny.12 mph58%30.12 "Hg4 mi
12:00 PM82 °FPartly sunny.12 mph58%30.15 "Hg4 mi
11:03 AM81 °FPartly sunny.13 mph62%30.18 "Hg3 mi
10:30 AM79 °FPartly sunny.10 mph65%30.18 "Hg2 mi
10:00 AM77 °FBroken clouds.7 mph74%30.18 "Hg2 mi
9:30 AM75 °FPartly sunny.5 mph78%30.18 "Hg2 mi
9:00 AM73 °FFog.6 mph83%30.18 "Hg2 mi
8:53 AM73 °FFog.7 mph83%30.18 "Hg2 mi
8:30 AM72 °FFog.7 mph88%30.18 "Hg2 mi
8:00 AM72 °FFog.7 mph83%30.18 "Hg2 mi
7:30 AM72 °FFog.6 mph83%30.18 "Hg2 mi
7:00 AM70 °FFog.7 mph88%30.18 "Hg2 mi
6:30 AM70 °FFog.7 mph88%30.15 "Hg2 mi
6:00 AM70 °FFog.5 mph88%30.15 "Hg2 mi
5:57 AM70 °FFog.5 mph88%30.15 "Hg2 mi
5:00 AM70 °FFog.3 mph88%30.15 "Hg2 mi
4:00 AM70 °FFog.5 mph88%30.15 "Hg2 mi
3:00 AM72 °FFog.3 mph83%30.15 "Hg2 mi
2:00 AM72 °FFog.3 mph83%30.15 "Hg2 mi
1:00 AM70 °FFog.5 mph88%30.18 "Hg2 mi
12:00 AM72 °FFog.7 mph83%30.21 "Hg3 mi
11:30 PM
Thu, Mar 26
72 °FFog.6 mph83%30.21 "Hg3 mi
11:00 PM73 °FPassing clouds.7 mph78%30.21 "Hg4 mi
10:30 PM73 °FPassing clouds.7 mph83%30.21 "Hg4 mi
10:00 PM73 °FPassing clouds.6 mph83%30.21 "Hg4 mi
9:30 PM75 °FMostly cloudy.6 mph78%30.21 "Hg4 mi
9:00 PM73 °FPassing clouds.6 mph83%30.21 "Hg4 mi
Weather by CustomWeather, © 2015

See weather overviewHow to use our weather pages